Regional Weather Roundup
Issued by NWS

Home | Current Version | Previous Version | Text Only | Print | Product List | Glossary Off
Versions: 1 2 3 4 5 6 7 8 9 10 11 12 13 14 15 16 17 18 19 20 21 22 23 24 25 26 27 28 29 30 31 32 33 34 35 36 37 38 39 40 41 42 43 44 45 46 47 48 49 50

000
ASUS43 KTOP 021708
RWRKS

WEATHER ROUNDUP FOR KANSAS
NATIONAL WEATHER SERVICE GOODLAND KS
1100 AM CST FRI DEC 02 2016

NOTE:  "FAIR" INDICATES FEW OR NO CLOUDS BELOW 12,000 FEET WITH NO
SIGNIFICANT WEATHER AND/OR OBSTRUCTIONS TO VISIBILITY.

KSZ001>006-013>018-027>032-041>047-021800-
NORTHWEST KANSAS

CITY           SKY/WX    TMP DP  RH WIND       PRES   REMARKS
GOODLAND       SUNNY     36  17  46 NW6       30.23R
HAYS           SUNNY     38  21  50 NW7       30.25F
HILL CITY      SUNNY     40  19  43 NE6       30.27S
RUSSELL        SUNNY     37  21  52 N8        30.24F
$$

KSZ061>065-074>080-084>089-021800-
SOUTHWEST KANSAS

CITY           SKY/WX    TMP DP  RH WIND       PRES   REMARKS
DODGE CITY     MOSUNNY   44  15  31 NW3       30.24R
ELKHART          N/A    N/A N/A N/A MISG        N/A
GARDEN CITY    MOSUNNY   34  13  41 W5        30.24R
GREAT BEND     SUNNY     40  21  46 N3        30.25S
LIBERAL        SUNNY     43  21  42 NE9       30.23S
PRATT          CLOUDY    38  19  46 NE8       30.25R
$$

KSZ066>073-081>083-090>101-021800-
SOUTHEAST KANSAS

CITY           SKY/WX    TMP DP  RH WIND       PRES   REMARKS
CHANUTE        SUNNY     52  23  32 SE10      30.26R
COFFEYVILLE    CLOUDY    52  28  39 E10       30.25R
HUTCHINSON     SUNNY     42  25  50 E3        30.26S
MEDICINE LODGE   N/A     41  24  51 NE6       30.24S
PARSONS        SUNNY     53  26  35 E7        30.26R
WICHITA INTL   CLOUDY    45  28  51 NE6       30.25R
WICHITA JABRA  MOSUNNY   45  29  53 NE7       30.25R
WICHITA MCCONL MOSUNNY   46  27  47 E8        30.25R
WINFIELD       CLOUDY    49  26  41 E12       30.24R
$$

KSZ007>012-019>026-033>040-048>060-102>105-021800-
NORTHEAST KANSAS

CITY           SKY/WX    TMP DP  RH WIND       PRES   REMARKS
CONCORDIA      SUNNY     38  28  67 E7        30.29R
EMPORIA        SUNNY     45  25  45 CALM      30.27R
LAWRENCE       SUNNY     41  32  70 CALM      30.30R
MANHATTAN      SUNNY     40  28  62 E3        30.30R
MARYSVILLE     SUNNY     39  30  70 E3        30.30R
OLATHE IND     SUNNY     45  27  49 CALM      30.29R
OLATHE EXE     SUNNY     45  26  47 NE6       30.28R
SALINA         SUNNY     42  26  53 N7        30.28F
TOPEKA BILLARD SUNNY     42  29  59 CALM      30.31R
TOPEKA FORBES  SUNNY     44  29  55 CALM      30.30R
$$



USA.gov is the U.S. government's official web portal to all federal, state and local government web resources and services.